Year,Month,Day,Hour,Minute,Value (Times are PST for temperature in C)
2013,10,30,00,00,1.60
2013,10,30,00,01,1.60
2013,10,30,00,02,1.60
2013,10,30,00,03,1.60
2013,10,30,00,04,1.60
2013,10,30,00,05,1.60
2013,10,30,00,06,1.70
2013,10,30,00,07,1.80
2013,10,30,00,08,1.80
2013,10,30,00,09,1.80
2013,10,30,00,10,1.90
2013,10,30,00,11,1.90
2013,10,30,00,12,1.90
2013,10,30,00,13,1.90
2013,10,30,00,14,1.80
2013,10,30,00,15,1.80
2013,10,30,00,16,1.80
2013,10,30,00,17,1.80
2013,10,30,00,18,1.70
2013,10,30,00,19,1.70
2013,10,30,00,20,1.70
2013,10,30,00,21,1.60
2013,10,30,00,22,1.60
2013,10,30,00,23,1.60
2013,10,30,00,24,1.60
2013,10,30,00,25,1.60
2013,10,30,00,26,1.60
2013,10,30,00,27,1.60
2013,10,30,00,28,1.60
2013,10,30,00,29,1.60
2013,10,30,00,30,1.50
2013,10,30,00,31,1.50
2013,10,30,00,32,1.50
2013,10,30,00,33,1.50
2013,10,30,00,34,1.40
2013,10,30,00,35,1.40
2013,10,30,00,36,1.40
2013,10,30,00,37,1.40
2013,10,30,00,38,1.30
2013,10,30,00,39,1.30
2013,10,30,00,40,1.30
2013,10,30,00,41,1.30
2013,10,30,00,42,1.30
2013,10,30,00,43,1.30
2013,10,30,00,44,1.30
2013,10,30,00,45,1.30
2013,10,30,00,46,1.20
2013,10,30,00,47,1.20
2013,10,30,00,48,1.20
2013,10,30,00,49,1.20
2013,10,30,00,50,1.20
2013,10,30,00,51,1.20
2013,10,30,00,52,1.30
2013,10,30,00,53,1.30
2013,10,30,00,54,1.30
2013,10,30,00,55,1.30
2013,10,30,00,56,1.30
2013,10,30,00,57,1.30
2013,10,30,00,58,1.30
2013,10,30,00,59,1.30
2013,10,30,01,00,1.20
2013,10,30,01,01,1.20
2013,10,30,01,02,1.20
2013,10,30,01,03,1.20
2013,10,30,01,04,1.20
2013,10,30,01,05,1.10
2013,10,30,01,06,1.10
2013,10,30,01,07,1.10
2013,10,30,01,08,1.10
2013,10,30,01,09,1.10
2013,10,30,01,10,1.10
2013,10,30,01,11,1.10
2013,10,30,01,12,1.20
2013,10,30,01,13,1.20
2013,10,30,01,14,1.30
2013,10,30,01,15,1.30
2013,10,30,01,16,1.30
2013,10,30,01,17,1.20
2013,10,30,01,18,1.20
2013,10,30,01,19,1.20
2013,10,30,01,20,1.10
2013,10,30,01,21,1.10
2013,10,30,01,22,1.10
2013,10,30,01,23,1.00
2013,10,30,01,24,1.00
2013,10,30,01,25,0.90
2013,10,30,01,26,0.90
2013,10,30,01,27,1.00
2013,10,30,01,28,1.00
2013,10,30,01,29,1.10
2013,10,30,01,30,1.10
2013,10,30,01,31,1.20
2013,10,30,01,32,1.20
2013,10,30,01,33,1.20
2013,10,30,01,34,1.20
2013,10,30,01,35,1.20
2013,10,30,01,36,1.20
2013,10,30,01,37,1.10
2013,10,30,01,38,1.10
2013,10,30,01,39,1.10
2013,10,30,01,40,1.10
2013,10,30,01,41,1.10
2013,10,30,01,42,1.00
2013,10,30,01,43,1.00
2013,10,30,01,44,1.00
2013,10,30,01,45,1.00
2013,10,30,01,46,1.00
2013,10,30,01,47,0.90
2013,10,30,01,48,0.90
2013,10,30,01,49,1.00
2013,10,30,01,50,0.90
2013,10,30,01,51,0.90
2013,10,30,01,52,0.90
2013,10,30,01,53,0.90
2013,10,30,01,54,0.90
2013,10,30,01,55,0.90
2013,10,30,01,56,0.90
2013,10,30,01,57,0.90
2013,10,30,01,58,0.90
2013,10,30,01,59,0.90
2013,10,30,02,00,0.90
2013,10,30,02,01,0.90
2013,10,30,02,02,0.90
2013,10,30,02,03,0.80
2013,10,30,02,04,0.80
2013,10,30,02,05,0.80
2013,10,30,02,06,0.80
2013,10,30,02,07,0.80
2013,10,30,02,08,0.80
2013,10,30,02,09,0.90
2013,10,30,02,10,0.90
2013,10,30,02,11,0.90
2013,10,30,02,12,1.00
2013,10,30,02,13,1.10
2013,10,30,02,14,1.20
2013,10,30,02,15,1.20
2013,10,30,02,16,1.20
2013,10,30,02,17,1.20
2013,10,30,02,18,1.20
2013,10,30,02,19,1.20
2013,10,30,02,20,1.30
2013,10,30,02,21,1.30
2013,10,30,02,22,1.30
2013,10,30,02,23,1.30
2013,10,30,02,24,1.30
2013,10,30,02,25,1.30
2013,10,30,02,26,1.30
2013,10,30,02,27,1.30
2013,10,30,02,28,1.30
2013,10,30,02,29,1.30
2013,10,30,02,30,1.30
2013,10,30,02,31,1.30
2013,10,30,02,32,1.30
2013,10,30,02,33,1.30
2013,10,30,02,34,1.30
2013,10,30,02,35,1.30
2013,10,30,02,36,1.30
2013,10,30,02,37,1.30
2013,10,30,02,38,1.30
2013,10,30,02,39,1.30
2013,10,30,02,40,1.30
2013,10,30,02,41,1.30
2013,10,30,02,42,1.30
2013,10,30,02,43,1.30
2013,10,30,02,44,1.30
2013,10,30,02,45,1.30
2013,10,30,02,46,1.30
2013,10,30,02,47,1.30
2013,10,30,02,48,1.30
2013,10,30,02,49,1.30
2013,10,30,02,50,1.30
2013,10,30,02,51,1.30
2013,10,30,02,52,1.30
2013,10,30,02,53,1.30
2013,10,30,02,54,1.40
2013,10,30,02,55,1.40
2013,10,30,02,56,1.40
2013,10,30,02,57,1.50
2013,10,30,02,58,1.50
2013,10,30,02,59,1.50
2013,10,30,03,00,1.60
2013,10,30,03,01,1.60
2013,10,30,03,02,1.70
2013,10,30,03,03,1.70
2013,10,30,03,04,1.70
2013,10,30,03,05,1.70
2013,10,30,03,06,1.70
2013,10,30,03,07,1.80
2013,10,30,03,08,1.80
2013,10,30,03,09,1.80
2013,10,30,03,10,1.80
2013,10,30,03,11,1.80
2013,10,30,03,12,1.80
2013,10,30,03,13,1.80
2013,10,30,03,14,1.80
2013,10,30,03,15,1.80
2013,10,30,03,16,1.80
2013,10,30,03,17,1.80
2013,10,30,03,18,1.80
2013,10,30,03,19,1.90
2013,10,30,03,20,1.90
2013,10,30,03,21,1.90
2013,10,30,03,22,1.90
2013,10,30,03,23,1.90
2013,10,30,03,24,1.90
2013,10,30,03,25,1.90
2013,10,30,03,26,1.90
2013,10,30,03,27,1.90
2013,10,30,03,28,1.90
2013,10,30,03,29,2.00
2013,10,30,03,30,2.00
2013,10,30,03,31,2.00
2013,10,30,03,32,2.00
2013,10,30,03,33,2.00
2013,10,30,03,34,2.00
2013,10,30,03,35,2.10
2013,10,30,03,36,2.10
2013,10,30,03,37,2.10
2013,10,30,03,38,2.20
2013,10,30,03,39,2.20
2013,10,30,03,40,2.20
2013,10,30,03,41,2.30
2013,10,30,03,42,2.30
2013,10,30,03,43,2.40
2013,10,30,03,44,2.40
2013,10,30,03,45,2.40
2013,10,30,03,46,2.40
2013,10,30,03,47,2.50
2013,10,30,03,48,2.50
2013,10,30,03,49,2.50
2013,10,30,03,50,2.60
2013,10,30,03,51,2.60
2013,10,30,03,52,2.60
2013,10,30,03,53,2.60
2013,10,30,03,54,2.70
2013,10,30,03,55,2.70
2013,10,30,03,56,2.70
2013,10,30,03,57,2.70
2013,10,30,03,58,2.70
2013,10,30,03,59,2.80
2013,10,30,04,00,2.80
2013,10,30,04,01,2.80
2013,10,30,04,02,2.80
2013,10,30,04,03,2.80
2013,10,30,04,04,2.80
2013,10,30,04,05,2.90
2013,10,30,04,06,2.90
2013,10,30,04,07,2.90
2013,10,30,04,08,2.90
2013,10,30,04,09,2.90
2013,10,30,04,10,2.90
2013,10,30,04,11,2.90
2013,10,30,04,12,2.90
2013,10,30,04,13,2.90
2013,10,30,04,14,2.90
2013,10,30,04,15,2.90
2013,10,30,04,16,2.90
2013,10,30,04,17,2.90
2013,10,30,04,18,2.90
2013,10,30,04,19,2.90
2013,10,30,04,20,2.90
2013,10,30,04,21,2.90
2013,10,30,04,22,2.90
2013,10,30,04,23,3.00
2013,10,30,04,24,3.00
2013,10,30,04,25,3.00
2013,10,30,04,26,3.10
2013,10,30,04,27,3.10
2013,10,30,04,28,3.10
2013,10,30,04,29,3.20
2013,10,30,04,30,3.20
2013,10,30,04,31,3.30
2013,10,30,04,32,3.30
2013,10,30,04,33,3.30
2013,10,30,04,34,3.40
2013,10,30,04,35,3.40
2013,10,30,04,36,3.40
2013,10,30,04,37,3.50
2013,10,30,04,38,3.50
2013,10,30,04,39,3.50
2013,10,30,04,40,3.50
2013,10,30,04,41,3.50
2013,10,30,04,42,3.50
2013,10,30,04,43,3.50
2013,10,30,04,44,3.50
2013,10,30,04,45,3.50
2013,10,30,04,46,3.50
2013,10,30,04,47,3.50
2013,10,30,04,48,3.60
2013,10,30,04,49,3.60
2013,10,30,04,50,3.60
2013,10,30,04,51,3.60
2013,10,30,04,52,3.60
2013,10,30,04,53,3.60
2013,10,30,04,54,3.60
2013,10,30,04,55,3.60
2013,10,30,04,56,3.60
2013,10,30,04,57,3.60
2013,10,30,04,58,3.60
2013,10,30,04,59,3.60
2013,10,30,05,00,3.60
2013,10,30,05,01,3.60
2013,10,30,05,02,3.60
2013,10,30,05,03,3.70
2013,10,30,05,04,3.70
2013,10,30,05,05,3.70
2013,10,30,05,06,3.70
2013,10,30,05,07,3.70
2013,10,30,05,08,3.60
2013,10,30,05,09,3.60
2013,10,30,05,10,3.60
2013,10,30,05,11,3.60
2013,10,30,05,12,3.60
2013,10,30,05,13,3.60
2013,10,30,05,14,3.60
2013,10,30,05,15,3.60
2013,10,30,05,16,3.60
2013,10,30,05,17,3.60
2013,10,30,05,18,3.60
2013,10,30,05,19,3.60
2013,10,30,05,20,3.60
2013,10,30,05,21,3.70
2013,10,30,05,22,3.70
2013,10,30,05,23,3.70
2013,10,30,05,24,3.70
2013,10,30,05,25,3.70
2013,10,30,05,26,3.70
2013,10,30,05,27,3.70
2013,10,30,05,28,3.70
2013,10,30,05,29,3.70
2013,10,30,05,30,3.70
2013,10,30,05,31,3.70
2013,10,30,05,32,3.70
2013,10,30,05,33,3.70
2013,10,30,05,34,3.70
2013,10,30,05,35,3.80
2013,10,30,05,36,3.80
2013,10,30,05,37,3.80
2013,10,30,05,38,3.80
2013,10,30,05,39,3.80
2013,10,30,05,40,3.80
2013,10,30,05,41,3.90
2013,10,30,05,42,3.90
2013,10,30,05,43,3.90
2013,10,30,05,44,3.90
2013,10,30,05,45,3.90
2013,10,30,05,46,3.90
2013,10,30,05,47,3.90
2013,10,30,05,48,3.90
2013,10,30,05,49,4.00
2013,10,30,05,50,4.00
2013,10,30,05,51,4.00
2013,10,30,05,52,4.00
2013,10,30,05,53,4.00
2013,10,30,05,54,4.00
2013,10,30,05,55,4.00
2013,10,30,05,56,4.00
2013,10,30,05,57,4.10
2013,10,30,05,58,4.10
2013,10,30,05,59,4.10
2013,10,30,06,00,4.10
2013,10,30,06,01,4.10
2013,10,30,06,02,4.10
2013,10,30,06,03,4.10
2013,10,30,06,04,4.10
2013,10,30,06,05,4.10
2013,10,30,06,06,4.10
2013,10,30,06,07,4.10
2013,10,30,06,08,4.10
2013,10,30,06,09,4.10
2013,10,30,06,10,4.20
2013,10,30,06,11,4.20
2013,10,30,06,12,4.20
2013,10,30,06,13,4.20
2013,10,30,06,14,4.20
2013,10,30,06,15,4.20
2013,10,30,06,16,4.20
2013,10,30,06,17,4.20
2013,10,30,06,18,4.20
2013,10,30,06,19,4.20
2013,10,30,06,20,4.20
2013,10,30,06,21,4.20
2013,10,30,06,22,4.20
2013,10,30,06,23,4.20
2013,10,30,06,24,4.20
2013,10,30,06,25,4.20
2013,10,30,06,26,4.20
2013,10,30,06,27,4.30
2013,10,30,06,28,4.30
2013,10,30,06,29,4.30
2013,10,30,06,30,4.30
2013,10,30,06,31,4.30
2013,10,30,06,32,4.30
2013,10,30,06,33,4.30
2013,10,30,06,34,4.30
2013,10,30,06,35,4.30
2013,10,30,06,36,4.30
2013,10,30,06,37,4.30
2013,10,30,06,38,4.30
2013,10,30,06,39,4.30
2013,10,30,06,40,4.30
2013,10,30,06,41,4.30
2013,10,30,06,42,4.30
2013,10,30,06,43,4.30
2013,10,30,06,44,4.30
2013,10,30,06,45,4.30
2013,10,30,06,46,4.40
2013,10,30,06,47,4.40
2013,10,30,06,48,4.40
2013,10,30,06,49,4.40
2013,10,30,06,50,4.40
2013,10,30,06,51,4.40
2013,10,30,06,52,4.50
2013,10,30,06,53,4.50
2013,10,30,06,54,4.50
2013,10,30,06,55,4.50
2013,10,30,06,56,4.60
2013,10,30,06,57,4.60
2013,10,30,06,58,4.60
2013,10,30,06,59,4.60
2013,10,30,07,00,4.60
2013,10,30,07,01,4.60
2013,10,30,07,02,4.60
2013,10,30,07,03,4.60
2013,10,30,07,04,4.60
2013,10,30,07,05,4.60
2013,10,30,07,06,4.60
2013,10,30,07,07,4.60
2013,10,30,07,08,4.70
2013,10,30,07,09,4.70
2013,10,30,07,10,4.70
2013,10,30,07,11,4.70
2013,10,30,07,12,4.70
2013,10,30,07,13,4.70
2013,10,30,07,14,4.80
2013,10,30,07,15,4.80
2013,10,30,07,16,4.80
2013,10,30,07,17,4.80
2013,10,30,07,18,4.80
2013,10,30,07,19,4.80
2013,10,30,07,20,4.80
2013,10,30,07,21,4.90
2013,10,30,07,22,4.90
2013,10,30,07,23,4.90
2013,10,30,07,24,4.90
2013,10,30,07,25,4.90
2013,10,30,07,26,5.00
2013,10,30,07,27,5.00
2013,10,30,07,28,5.10
2013,10,30,07,29,5.10
2013,10,30,07,30,5.20
2013,10,30,07,31,5.20
2013,10,30,07,32,5.30
2013,10,30,07,33,5.40
2013,10,30,07,34,5.40
2013,10,30,07,35,5.50
2013,10,30,07,36,5.50
2013,10,30,07,37,5.60
2013,10,30,07,38,5.60
2013,10,30,07,39,5.60
2013,10,30,07,40,5.60
2013,10,30,07,41,5.60
2013,10,30,07,42,5.60
2013,10,30,07,43,5.60
2013,10,30,07,44,5.60
2013,10,30,07,45,5.50
2013,10,30,07,46,5.50
2013,10,30,07,47,5.40
2013,10,30,07,48,5.40
2013,10,30,07,49,5.30
2013,10,30,07,50,5.30
2013,10,30,07,51,5.30
2013,10,30,07,52,5.30
2013,10,30,07,53,5.30
2013,10,30,07,54,5.30
2013,10,30,07,55,5.30
2013,10,30,07,56,5.30
2013,10,30,07,57,5.30
2013,10,30,07,58,5.30
2013,10,30,07,59,5.30
2013,10,30,08,00,5.30
2013,10,30,08,01,5.30
2013,10,30,08,02,5.30
2013,10,30,08,03,5.30
2013,10,30,08,04,5.30
2013,10,30,08,05,5.30
2013,10,30,08,06,5.30
2013,10,30,08,07,5.30
2013,10,30,08,08,5.30
2013,10,30,08,09,5.30
2013,10,30,08,10,5.30
2013,10,30,08,11,5.30
2013,10,30,08,12,5.30
2013,10,30,08,13,5.30
2013,10,30,08,14,5.30
2013,10,30,08,15,5.30
2013,10,30,08,16,5.30
2013,10,30,08,17,5.30
2013,10,30,08,18,5.30
2013,10,30,08,19,5.30
2013,10,30,08,20,5.30
2013,10,30,08,21,5.30
2013,10,30,08,22,5.30
2013,10,30,08,23,5.30
2013,10,30,08,24,5.30
2013,10,30,08,25,5.30
2013,10,30,08,26,5.30
2013,10,30,08,27,5.30
2013,10,30,08,28,5.30
2013,10,30,08,29,5.30
2013,10,30,08,30,5.30
2013,10,30,08,31,5.30
2013,10,30,08,32,5.40
2013,10,30,08,33,5.40
2013,10,30,08,34,5.40
2013,10,30,08,35,5.40
2013,10,30,08,36,5.40
2013,10,30,08,37,5.40
2013,10,30,08,38,5.40
2013,10,30,08,39,5.40
2013,10,30,08,40,5.40
2013,10,30,08,41,5.50
2013,10,30,08,42,5.50
2013,10,30,08,43,5.50
2013,10,30,08,44,5.50
2013,10,30,08,45,5.60
2013,10,30,08,46,5.60
2013,10,30,08,47,5.60
2013,10,30,08,48,5.60
2013,10,30,08,49,5.70
2013,10,30,08,50,5.70
2013,10,30,08,51,5.70
2013,10,30,08,52,5.70
2013,10,30,08,53,5.70
2013,10,30,08,54,5.80
2013,10,30,08,55,5.90
2013,10,30,08,56,5.90
2013,10,30,08,57,6.00
2013,10,30,08,58,6.10
2013,10,30,08,59,6.10
2013,10,30,09,00,6.10
2013,10,30,09,01,6.20
2013,10,30,09,02,6.20
2013,10,30,09,03,6.30
2013,10,30,09,04,6.30
2013,10,30,09,05,6.40
2013,10,30,09,06,6.50
2013,10,30,09,07,6.50
2013,10,30,09,08,6.60
2013,10,30,09,09,6.70
2013,10,30,09,10,6.70
2013,10,30,09,11,6.70
2013,10,30,09,12,6.80
2013,10,30,09,13,6.80
2013,10,30,09,14,6.90
2013,10,30,09,15,6.90
2013,10,30,09,16,7.00
2013,10,30,09,17,7.00
2013,10,30,09,18,7.00
2013,10,30,09,19,7.10
2013,10,30,09,20,7.10
2013,10,30,09,21,7.10
2013,10,30,09,22,7.10
2013,10,30,09,23,7.20
2013,10,30,09,24,7.20
2013,10,30,09,25,7.20
2013,10,30,09,26,7.20
2013,10,30,09,27,7.20
2013,10,30,09,28,7.20
2013,10,30,09,29,7.20
2013,10,30,09,30,7.20
2013,10,30,09,31,7.20
2013,10,30,09,32,7.20
2013,10,30,09,33,7.20
2013,10,30,09,34,7.20
2013,10,30,09,35,7.20
2013,10,30,09,36,7.30
2013,10,30,09,37,7.30
2013,10,30,09,38,7.30
2013,10,30,09,39,7.30
2013,10,30,09,40,7.30
2013,10,30,09,41,7.40
2013,10,30,09,42,7.40
2013,10,30,09,43,7.40
2013,10,30,09,44,7.40
2013,10,30,09,45,7.40
2013,10,30,09,46,7.40
2013,10,30,09,47,7.40
2013,10,30,09,48,7.50
2013,10,30,09,49,7.50
2013,10,30,09,50,7.50
2013,10,30,09,51,7.50
2013,10,30,09,52,7.50
2013,10,30,09,53,7.50
2013,10,30,09,54,7.50
2013,10,30,09,55,7.60
2013,10,30,09,56,7.50
2013,10,30,09,57,7.50
2013,10,30,09,58,7.50
2013,10,30,09,59,7.50
2013,10,30,10,00,7.50
2013,10,30,10,01,7.50
2013,10,30,10,02,7.60
2013,10,30,10,03,7.60
2013,10,30,10,04,7.60
2013,10,30,10,05,7.60
2013,10,30,10,06,7.60
2013,10,30,10,07,7.60
2013,10,30,10,08,7.60
2013,10,30,10,09,7.60
2013,10,30,10,10,7.60
2013,10,30,10,11,7.70
2013,10,30,10,12,7.70
2013,10,30,10,13,7.70
2013,10,30,10,14,7.70
2013,10,30,10,15,7.70
2013,10,30,10,16,7.70
2013,10,30,10,17,7.70
2013,10,30,10,18,7.70
2013,10,30,10,19,7.70
2013,10,30,10,20,7.70
2013,10,30,10,21,7.70
2013,10,30,10,22,7.70
2013,10,30,10,23,7.70
2013,10,30,10,24,7.70
2013,10,30,10,25,7.70
2013,10,30,10,26,7.70
2013,10,30,10,27,7.70
2013,10,30,10,28,7.70
2013,10,30,10,29,7.70
2013,10,30,10,30,7.70
2013,10,30,10,31,7.70
2013,10,30,10,32,7.70
2013,10,30,10,33,7.70
2013,10,30,10,34,7.70
2013,10,30,10,35,7.70
2013,10,30,10,36,7.70
2013,10,30,10,37,7.80
2013,10,30,10,38,7.80
2013,10,30,10,39,7.80
2013,10,30,10,40,7.80
2013,10,30,10,41,7.90
2013,10,30,10,42,7.90
2013,10,30,10,43,7.90
2013,10,30,10,44,8.00
2013,10,30,10,45,8.00
2013,10,30,10,46,8.00
2013,10,30,10,47,8.00
2013,10,30,10,48,8.10
2013,10,30,10,49,8.00
2013,10,30,10,50,8.00
2013,10,30,10,51,8.10
2013,10,30,10,52,8.00
2013,10,30,10,53,8.00
2013,10,30,10,54,8.10
2013,10,30,10,55,8.10
2013,10,30,10,56,8.10
2013,10,30,10,57,8.10
2013,10,30,10,58,8.10
2013,10,30,10,59,8.10
2013,10,30,11,00,8.10
2013,10,30,11,01,8.10
2013,10,30,11,02,8.10
2013,10,30,11,03,8.20
2013,10,30,11,04,8.20
2013,10,30,11,05,8.20
2013,10,30,11,06,8.30
2013,10,30,11,07,8.30
2013,10,30,11,08,8.30
2013,10,30,11,09,8.30
2013,10,30,11,10,8.20
2013,10,30,11,11,8.20
2013,10,30,11,12,8.20
2013,10,30,11,13,8.10
2013,10,30,11,14,8.10
2013,10,30,11,15,8.10
2013,10,30,11,16,8.10
2013,10,30,11,17,8.10
2013,10,30,11,18,8.10
2013,10,30,11,19,8.00
2013,10,30,11,20,8.00
2013,10,30,11,21,8.00
2013,10,30,11,22,8.10
2013,10,30,11,23,8.10
2013,10,30,11,24,8.20
2013,10,30,11,25,8.20
2013,10,30,11,26,8.20
2013,10,30,11,27,8.20
2013,10,30,11,28,8.20
2013,10,30,11,29,8.20
2013,10,30,11,30,8.10
2013,10,30,11,31,8.10
2013,10,30,11,32,8.10
2013,10,30,11,33,8.10
2013,10,30,11,34,8.10
2013,10,30,11,35,8.10
2013,10,30,11,36,8.10
2013,10,30,11,37,8.10
2013,10,30,11,38,8.20
2013,10,30,11,39,8.20
2013,10,30,11,40,8.20
2013,10,30,11,41,8.20
2013,10,30,11,42,8.30
2013,10,30,11,43,8.30
2013,10,30,11,44,8.30
2013,10,30,11,45,8.40
2013,10,30,11,46,8.40
2013,10,30,11,47,8.40
2013,10,30,11,48,8.40
2013,10,30,11,49,8.50
2013,10,30,11,50,8.40
2013,10,30,11,51,8.40
2013,10,30,11,52,8.40
2013,10,30,11,53,8.40
2013,10,30,11,54,8.50
2013,10,30,11,55,8.50
2013,10,30,11,56,8.40
2013,10,30,11,57,8.40
2013,10,30,11,58,8.50
2013,10,30,11,59,8.50
2013,10,30,12,00,8.50
2013,10,30,12,01,8.60
2013,10,30,12,02,8.60
2013,10,30,12,03,8.60
2013,10,30,12,04,8.70
2013,10,30,12,05,8.70
2013,10,30,12,06,8.70
2013,10,30,12,07,8.80
2013,10,30,12,08,8.80
2013,10,30,12,09,8.80
2013,10,30,12,10,8.80
2013,10,30,12,11,8.90
2013,10,30,12,12,8.90
2013,10,30,12,13,8.90
2013,10,30,12,14,8.90
2013,10,30,12,15,8.90
2013,10,30,12,16,8.90
2013,10,30,12,17,8.90
2013,10,30,12,18,8.90
2013,10,30,12,19,8.90
2013,10,30,12,20,8.80
2013,10,30,12,21,8.80
2013,10,30,12,22,8.80
2013,10,30,12,23,8.80
2013,10,30,12,24,8.80
2013,10,30,12,25,8.90
2013,10,30,12,26,8.90
2013,10,30,12,27,8.90
2013,10,30,12,28,8.90
2013,10,30,12,29,8.90
2013,10,30,12,30,8.90
2013,10,30,12,31,8.90
2013,10,30,12,32,8.90
2013,10,30,12,33,8.90
2013,10,30,12,34,9.00
2013,10,30,12,35,9.00
2013,10,30,12,36,9.10
2013,10,30,12,37,9.10
2013,10,30,12,38,9.10
2013,10,30,12,39,9.10
2013,10,30,12,40,9.10
2013,10,30,12,41,9.10
2013,10,30,12,42,9.10
2013,10,30,12,43,9.10
2013,10,30,12,44,9.10
2013,10,30,12,45,9.10
2013,10,30,12,46,9.10
2013,10,30,12,47,9.20
2013,10,30,12,48,9.20
2013,10,30,12,49,9.30
2013,10,30,12,50,9.30
2013,10,30,12,51,9.30
2013,10,30,12,52,9.30
2013,10,30,12,53,9.30
2013,10,30,12,54,9.30
2013,10,30,12,55,9.20
2013,10,30,12,56,9.20
2013,10,30,12,57,9.10
2013,10,30,12,58,9.10
2013,10,30,12,59,9.10
2013,10,30,13,00,9.10
2013,10,30,13,01,9.20
2013,10,30,13,02,9.10
2013,10,30,13,03,9.10
2013,10,30,13,04,9.10
2013,10,30,13,05,9.10
2013,10,30,13,06,9.00
2013,10,30,13,07,9.00
2013,10,30,13,08,9.10
2013,10,30,13,09,9.10
2013,10,30,13,10,9.10
2013,10,30,13,11,9.10
2013,10,30,13,12,9.10
2013,10,30,13,13,9.20
2013,10,30,13,14,9.20
2013,10,30,13,15,9.20
2013,10,30,13,16,9.20
2013,10,30,13,17,9.10
2013,10,30,13,18,9.10
2013,10,30,13,19,9.10
2013,10,30,13,20,9.20
2013,10,30,13,21,9.10
2013,10,30,13,22,9.10
2013,10,30,13,23,9.10
2013,10,30,13,24,9.20
2013,10,30,13,25,9.10
2013,10,30,13,26,9.20
2013,10,30,13,27,9.20
2013,10,30,13,28,9.20
2013,10,30,13,29,9.20
2013,10,30,13,30,9.20
2013,10,30,13,31,9.20
2013,10,30,13,32,9.20
2013,10,30,13,33,9.20
2013,10,30,13,34,9.20
2013,10,30,13,35,9.20
2013,10,30,13,36,9.30
2013,10,30,13,37,9.30
2013,10,30,13,38,9.30
2013,10,30,13,39,9.40
2013,10,30,13,40,9.40
2013,10,30,13,41,9.50
2013,10,30,13,42,9.50
2013,10,30,13,43,9.60
2013,10,30,13,44,9.60
2013,10,30,13,45,9.60
2013,10,30,13,46,9.50
2013,10,30,13,47,9.40
2013,10,30,13,48,9.30
2013,10,30,13,49,9.30
2013,10,30,13,50,9.30
2013,10,30,13,51,9.30
2013,10,30,13,52,9.30
2013,10,30,13,53,9.30
2013,10,30,13,54,9.20
2013,10,30,13,55,9.30
2013,10,30,13,56,9.30
2013,10,30,13,57,9.30
2013,10,30,13,58,9.30
2013,10,30,13,59,9.30
2013,10,30,14,00,9.30
2013,10,30,14,01,9.20
2013,10,30,14,02,9.20
2013,10,30,14,03,9.20
2013,10,30,14,04,9.20
2013,10,30,14,05,9.10
2013,10,30,14,06,9.10
2013,10,30,14,07,9.10
2013,10,30,14,08,9.10
2013,10,30,14,09,9.20
2013,10,30,14,10,9.20
2013,10,30,14,11,9.10
2013,10,30,14,12,9.10
2013,10,30,14,13,9.10
2013,10,30,14,14,9.10
2013,10,30,14,15,9.20
2013,10,30,14,16,9.20
2013,10,30,14,17,9.20
2013,10,30,14,18,9.20
2013,10,30,14,19,9.20
2013,10,30,14,20,9.20
2013,10,30,14,21,9.20
2013,10,30,14,22,9.20
2013,10,30,14,23,9.20
2013,10,30,14,24,9.20
2013,10,30,14,25,9.20
2013,10,30,14,26,9.20
2013,10,30,14,27,9.20
2013,10,30,14,28,9.20
2013,10,30,14,29,9.20
2013,10,30,14,30,9.20
2013,10,30,14,31,9.20
2013,10,30,14,32,9.20
2013,10,30,14,33,9.20
2013,10,30,14,34,9.20
2013,10,30,14,35,9.20
2013,10,30,14,36,9.20
2013,10,30,14,37,9.20
2013,10,30,14,38,9.20
2013,10,30,14,39,9.10
2013,10,30,14,40,9.20
2013,10,30,14,41,9.20
2013,10,30,14,42,9.20
2013,10,30,14,43,9.20
2013,10,30,14,44,9.20
2013,10,30,14,45,9.20
2013,10,30,14,46,9.20
2013,10,30,14,47,9.20
2013,10,30,14,48,9.20
2013,10,30,14,49,9.20
2013,10,30,14,50,9.20
2013,10,30,14,51,9.20
2013,10,30,14,52,9.20
2013,10,30,14,53,9.20
2013,10,30,14,54,9.20
2013,10,30,14,55,9.20
2013,10,30,14,56,9.20
2013,10,30,14,57,9.20
2013,10,30,14,58,9.20
2013,10,30,14,59,9.20
2013,10,30,15,00,9.10
2013,10,30,15,01,9.10
2013,10,30,15,02,9.00
2013,10,30,15,03,9.00
2013,10,30,15,04,8.90
2013,10,30,15,05,8.90
2013,10,30,15,06,8.90
2013,10,30,15,07,9.00
2013,10,30,15,08,9.00
2013,10,30,15,09,9.00
2013,10,30,15,10,9.00
2013,10,30,15,11,9.00
2013,10,30,15,12,9.00
2013,10,30,15,13,8.90
2013,10,30,15,14,8.90
2013,10,30,15,15,8.90
2013,10,30,15,16,8.90
2013,10,30,15,17,8.90
2013,10,30,15,18,8.90
2013,10,30,15,19,8.90
2013,10,30,15,20,8.80
2013,10,30,15,21,8.80
2013,10,30,15,22,8.80
2013,10,30,15,23,8.80
2013,10,30,15,24,8.80
2013,10,30,15,25,8.80
2013,10,30,15,26,8.80
2013,10,30,15,27,8.70
2013,10,30,15,28,8.70
2013,10,30,15,29,8.70
2013,10,30,15,30,8.70
2013,10,30,15,31,8.70
2013,10,30,15,32,8.70
2013,10,30,15,33,8.70
2013,10,30,15,34,8.70
2013,10,30,15,35,8.70
2013,10,30,15,36,8.70
2013,10,30,15,37,8.70
2013,10,30,15,38,8.70
2013,10,30,15,39,8.70
2013,10,30,15,40,8.70
2013,10,30,15,41,8.70
2013,10,30,15,42,8.70
2013,10,30,15,43,8.70
2013,10,30,15,44,8.60
2013,10,30,15,45,8.60
2013,10,30,15,46,8.60
2013,10,30,15,47,8.60
2013,10,30,15,48,8.60
2013,10,30,15,49,8.60
2013,10,30,15,50,8.60
2013,10,30,15,51,8.60
2013,10,30,15,52,8.50
2013,10,30,15,53,8.60
2013,10,30,15,54,8.50
2013,10,30,15,55,8.50
2013,10,30,15,56,8.50
2013,10,30,15,57,8.50
2013,10,30,15,58,8.50
2013,10,30,15,59,8.50
2013,10,30,16,00,8.40
2013,10,30,16,01,8.40
2013,10,30,16,02,8.40
2013,10,30,16,03,8.40
2013,10,30,16,04,8.40
2013,10,30,16,05,8.40
2013,10,30,16,06,8.40
2013,10,30,16,07,8.40
2013,10,30,16,08,8.40
2013,10,30,16,09,8.40
2013,10,30,16,10,8.40
2013,10,30,16,11,8.40
2013,10,30,16,12,8.40
2013,10,30,16,13,8.40
2013,10,30,16,14,8.40
2013,10,30,16,15,8.40
2013,10,30,16,16,8.40
2013,10,30,16,17,8.40
2013,10,30,16,18,8.40
2013,10,30,16,19,8.30
2013,10,30,16,20,8.30
2013,10,30,16,21,8.30
2013,10,30,16,22,8.30
2013,10,30,16,23,8.30
2013,10,30,16,24,8.30
2013,10,30,16,25,8.30
2013,10,30,16,26,8.30
2013,10,30,16,27,8.30
2013,10,30,16,28,8.30
2013,10,30,16,29,8.30
2013,10,30,16,30,8.30
2013,10,30,16,31,8.30
2013,10,30,16,32,8.30
2013,10,30,16,33,8.20
2013,10,30,16,34,8.20
2013,10,30,16,35,8.20
2013,10,30,16,36,8.20
2013,10,30,16,37,8.20
2013,10,30,16,38,8.20
2013,10,30,16,39,8.20
2013,10,30,16,40,8.20
2013,10,30,16,41,8.20
2013,10,30,16,42,8.20
2013,10,30,16,43,8.20
2013,10,30,16,44,8.20
2013,10,30,16,45,8.20
2013,10,30,16,46,8.20
2013,10,30,16,47,8.20
2013,10,30,16,48,8.20
2013,10,30,16,49,8.20
2013,10,30,16,50,8.20
2013,10,30,16,51,8.10
2013,10,30,16,52,8.10
2013,10,30,16,53,8.10
2013,10,30,16,54,8.10
2013,10,30,16,55,8.10
2013,10,30,16,56,8.10
2013,10,30,16,57,8.10
2013,10,30,16,58,8.10
2013,10,30,16,59,8.10
2013,10,30,17,00,8.10
2013,10,30,17,01,8.10
2013,10,30,17,02,8.10
2013,10,30,17,03,8.10
2013,10,30,17,04,8.10
2013,10,30,17,05,8.10
2013,10,30,17,06,8.10
2013,10,30,17,07,8.10
2013,10,30,17,08,8.10
2013,10,30,17,09,8.10
2013,10,30,17,10,8.10
2013,10,30,17,11,8.10
2013,10,30,17,12,8.10
2013,10,30,17,13,8.10
2013,10,30,17,14,8.10
2013,10,30,17,15,8.10
2013,10,30,17,16,8.10
2013,10,30,17,17,8.10
2013,10,30,17,18,8.10
2013,10,30,17,19,8.10
2013,10,30,17,20,8.10
2013,10,30,17,21,8.10
2013,10,30,17,22,8.10
2013,10,30,17,23,8.10
2013,10,30,17,24,8.10
2013,10,30,17,25,8.00
2013,10,30,17,26,8.00
2013,10,30,17,27,8.00
2013,10,30,17,28,8.00
2013,10,30,17,29,8.00
2013,10,30,17,30,8.00
2013,10,30,17,31,8.00
2013,10,30,17,32,8.00
2013,10,30,17,33,8.00
2013,10,30,17,34,8.00
2013,10,30,17,35,8.00
2013,10,30,17,36,8.00
2013,10,30,17,37,8.00
2013,10,30,17,38,8.00
2013,10,30,17,39,8.00
2013,10,30,17,40,7.90
2013,10,30,17,41,7.90
2013,10,30,17,42,7.90
2013,10,30,17,43,7.90
2013,10,30,17,44,7.90
2013,10,30,17,45,7.90
2013,10,30,17,46,7.90
2013,10,30,17,47,7.90
2013,10,30,17,48,7.90
2013,10,30,17,49,7.90
2013,10,30,17,50,7.90
2013,10,30,17,51,7.90
2013,10,30,17,52,7.90
2013,10,30,17,53,7.90
2013,10,30,17,54,7.90
2013,10,30,17,55,7.90
2013,10,30,17,56,7.90
2013,10,30,17,57,7.90
2013,10,30,17,58,7.90
2013,10,30,17,59,7.90
2013,10,30,18,00,7.90
2013,10,30,18,01,7.90
2013,10,30,18,02,7.90
2013,10,30,18,03,7.90
2013,10,30,18,04,7.90
2013,10,30,18,05,7.90
2013,10,30,18,06,7.90